Regional Weather Roundup
Issued by NWS Little Rock, AR

Home | Current Version | Previous Version | Text Only | Print | Product List | Glossary Off
Versions: 1 2 3 4 5 6 7 8 9 10 11 12 13 14 15 16 17 18 19 20 21 22 23 24 25 26 27 28 29 30 31 32

000
ASUS44 KLZK 252205
RWRLZK

WEATHER ROUNDUP FOR ARKANSAS
NATIONAL WEATHER SERVICE LITTLE ROCK AR
500 PM CDT TUE APR 25 2017

NOTE: "FAIR" INDICATES FEW OR NO CLOUDS BELOW 12,000 FEET WITH NO
SIGNIFICANT WEATHER AND/OR OBSTRUCTIONS TO VISIBILITY.

ARZ001-003-010-029-252300-
NORTHWEST ARKANSAS

CITY           SKY/WX    TMP DP  RH WIND       PRES   REMARKS
FAYETTEVILLE   CLOUDY    77  63  61 S17       29.46S
FORT SMITH     MOSUNNY   81  59  47 S15       29.45F
HARRISON       LGT RAIN  78  59  51 S17G25    29.48F
BENTONVILLE    CLOUDY    81  61  50 SW13      29.46S
ROGERS         CLOUDY    79  62  56 S21G26    29.46S
SILOAM SPGS    MOSUNNY   75  59  57 S18G28    29.45S
HIGHFILL       CLOUDY    76  61  59 SW13G22   29.45R
SPRINGDALE     MOSUNNY   77  61  57 S16G29    29.48R
$$

ARZ004-005-016-252300-
NORTH CENTRAL ARKANSAS

CITY           SKY/WX    TMP DP  RH WIND       PRES   REMARKS
BATESVILLE     SUNNY    N/A N/A N/A S12G18    29.55S
FLIPPIN        PTSUNNY  N/A N/A N/A S12G18    29.45F
MTN HOME       MOSUNNY   78  55  44 SW18G25   29.48F
$$

ARZ040-041-252300-
WEST CENTRAL ARKANSAS

CITY           SKY/WX    TMP DP  RH WIND       PRES   REMARKS
MENA           PTSUNNY   81  66  61 S5        29.52F
MOUNT IDA      MOSUNNY   81  61  50 VRB7      29.51F
$$

ARZ009-017-025-026-028-252300-
NORTHEAST ARKANSAS

CITY           SKY/WX    TMP DP  RH WIND       PRES   REMARKS
CORNING        LGT RAIN  81  55  41 S21       29.56F
JONESBORO      SUNNY     80  52  37 S17G28    29.57F
NEWPORT        SUNNY     81  52  36 S26       29.55F
WALNUT RIDGE   SUNNY     81  52  36 CALM      29.55F
BLYTHEVILLE    SUNNY     80  54  40 S15G23    29.60F
NW BLYTHEVILLE SUNNY     81  52  36 S16G25    29.60F
$$

ARZ022-023-033-042-044-252300-
CENTRAL ARKANSAS

CITY           SKY/WX    TMP DP  RH WIND       PRES   REMARKS
LITTLE ROCK    MOSUNNY   81  59  47 S16G25    29.55F
N LITTLE ROCK    N/A     81  60  48 S12G21    29.54F
JACKSONVILLE   SUNNY     82  60  47 S14G22    29.54F
CONWAY           N/A     82  61  47 S17G25    29.51F
SEARCY         SUNNY     80  56  43 S16       29.56F
HOT SPRINGS    SUNNY     81  61  50 S12G21    29.54F
RUSSELLVILLE   SUNNY     82  61  48 S9G18     29.49F
$$

ARZ036-252300-
EAST ARKANSAS

CITY           SKY/WX    TMP DP  RH WIND       PRES   REMARKS
WEST MEMPHIS   SUNNY     79  53  40 S22G29    29.59F
$$

ARZ050-053-066-070-073-252300-
SOUTHWEST ARKANSAS

CITY           SKY/WX    TMP DP  RH WIND       PRES   REMARKS
ARKADELPHIA    FAIR      82  64  54 S12       29.54F
CAMDEN         SUNNY     82  57  42 S10G24    29.56F
TEXARKANA      MOSUNNY   79  65  62 S16G26    29.54F
EL DORADO        N/A    N/A N/A N/A MISG      29.57F
DE QUEEN       MOSUNNY   79  66  64 S10G23    29.49F
$$

ARZ056-057-069-252300-
SOUTHEAST ARKANSAS

CITY           SKY/WX    TMP DP  RH WIND       PRES   REMARKS
PINE BLUFF     LGT RAIN  81  58  45 S20G28    29.57F
STUTTGART      SUNNY     81  50  34 S24G30    29.57F
MONTICELLO     SUNNY     82  56  40 S8G25     29.60F

$$






USA.gov is the U.S. government's official web portal to all federal, state and local government web resources and services.